| time (UTC) | temp F | wind direction | speed MPH | gust MPH | rain 1hr in | rain 24hr in | rain mn in | humidity % | barometer mb |
| 20260505003804 | 64 | 119 | 1.0 | 2.0 | 0.00 | 0.03 | 0.00 | 46 | 1003.9 |
| 20260505002304 | 66 | 121 | 0.0 | 2.0 | 0.00 | 0.03 | 0.00 | 39 | 1003.8 |
| 20260505001304 | 67 | 138 | 0.0 | 1.0 | 0.00 | 0.03 | 0.00 | 37 | 1003.8 |
| 20260505000302 | 69 | 138 | 0.0 | 2.0 | 0.00 | 0.03 | 0.00 | 34 | 1003.7 |
| 20260504235804 | 70 | 182 | 1.0 | 2.0 | 0.00 | 0.03 | 0.00 | 32 | 1003.7 |
| 20260504234803 | 71 | 166 | 1.0 | 3.0 | 0.00 | 0.03 | 0.00 | 30 | 1003.6 |
| 20260504234304 | 71 | 185 | 2.0 | 3.0 | 0.00 | 0.03 | 0.00 | 30 | 1003.6 |
| 20260504233802 | 72 | 201 | 1.0 | 5.0 | 0.00 | 0.03 | 0.00 | 30 | 1003.6 |
| 20260504233303 | 72 | 198 | 2.0 | 5.0 | 0.00 | 0.03 | 0.00 | 29 | 1003.6 |
| 20260504232802 | 73 | 206 | 3.0 | 8.0 | 0.00 | 0.03 | 0.00 | 28 | 1003.4 |
| 20260504231803 | 73 | 213 | 5.0 | 7.0 | 0.00 | 0.03 | 0.00 | 27 | 1003.5 |
| 20260504231304 | 74 | 207 | 4.0 | 9.0 | 0.00 | 0.03 | 0.00 | 28 | 1003.5 |
| 20260504230803 | 74 | 204 | 2.0 | 10.0 | 0.00 | 0.03 | 0.00 | 28 | 1003.5 |
| 20260504230302 | 74 | 242 | 5.0 | 10.0 | 0.00 | 0.03 | 0.00 | 26 | 1003.7 |
| 20260504225804 | 74 | 229 | 6.0 | 8.0 | 0.00 | 0.03 | 0.00 | 28 | 1003.7 |
| 20260504225304 | 74 | 211 | 3.0 | 13.0 | 0.00 | 0.03 | 0.00 | 28 | 1003.7 |
| 20260504224303 | 74 | 217 | 8.0 | 13.0 | 0.00 | 0.03 | 0.00 | 27 | 1003.9 |
| 20260504223802 | 74 | 235 | 4.0 | 12.0 | 0.00 | 0.03 | 0.00 | 28 | 1003.8 |
| 20260504223303 | 74 | 225 | 7.0 | 12.0 | 0.00 | 0.03 | 0.00 | 29 | 1003.7 |
| 20260504222304 | 74 | 253 | 6.0 | 12.0 | 0.00 | 0.03 | 0.00 | 28 | 1003.8 |
| 20260504221804 | 74 | 210 | 5.0 | 13.0 | 0.00 | 0.03 | 0.00 | 29 | 1003.7 |
| 20260504220802 | 74 | 218 | 3.0 | 15.0 | 0.00 | 0.03 | 0.00 | 30 | 1004.0 |
| 20260504220302 | 73 | 237 | 5.0 | 20.0 | 0.00 | 0.03 | 0.00 | 30 | 1004.0 |
| 20260504215802 | 75 | 247 | 6.0 | 14.0 | 0.00 | 0.03 | 0.00 | 29 | 1004.0 |
| 20260504215304 | 74 | 205 | 8.0 | 14.0 | 0.00 | 0.03 | 0.00 | 29 | 1004.0 |
| 20260504214803 | 74 | 212 | 5.0 | 15.0 | 0.00 | 0.03 | 0.00 | 30 | 1004.0 |
| 20260504214303 | 73 | 231 | 13.0 | 18.0 | 0.00 | 0.03 | 0.00 | 30 | 1003.9 |
| 20260504213803 | 73 | 228 | 6.0 | 12.0 | 0.00 | 0.03 | 0.00 | 32 | 1003.9 |
| 20260504213303 | 73 | 279 | 6.0 | 17.0 | 0.00 | 0.03 | 0.00 | 30 | 1004.1 |
| 20260504212803 | 73 | 207 | 11.0 | 17.0 | 0.00 | 0.03 | 0.00 | 30 | 1004.2 |
| 20260504211803 | 73 | 238 | 9.0 | 24.0 | 0.00 | 0.03 | 0.00 | 30 | 1004.2 |
| 20260504211302 | 73 | 239 | 7.0 | 24.0 | 0.00 | 0.03 | 0.00 | 32 | 1004.0 |
| 20260504210303 | 74 | 207 | 9.0 | 18.0 | 0.00 | 0.03 | 0.00 | 30 | 1004.0 |
| 20260504205803 | 74 | 212 | 6.0 | 16.0 | 0.00 | 0.03 | 0.00 | 31 | 1004.0 |
| 20260504205304 | 74 | 279 | 9.0 | 23.0 | 0.00 | 0.03 | 0.00 | 30 | 1004.0 |
| 20260504204303 | 74 | 240 | 13.0 | 22.0 | 0.00 | 0.03 | 0.00 | 32 | 1004.2 |
| 20260504203302 | 73 | 220 | 4.0 | 15.0 | 0.00 | 0.03 | 0.00 | 32 | 1004.3 |
| 20260504202803 | 74 | 251 | 8.0 | 22.0 | 0.00 | 0.03 | 0.00 | 32 | 1004.2 |
| 20260504201804 | 73 | 214 | 12.0 | 16.0 | 0.00 | 0.03 | 0.00 | 32 | 1004.4 |
| 20260504201303 | 73 | 273 | 5.0 | 17.0 | 0.00 | 0.03 | 0.00 | 34 | 1004.4 |
| 20260504200803 | 73 | 246 | 10.0 | 17.0 | 0.00 | 0.03 | 0.00 | 32 | 1004.6 |
| 20260504200303 | 73 | 259 | 10.0 | 21.0 | 0.00 | 0.03 | 0.00 | 33 | 1004.8 |
| 20260504195803 | 73 | 228 | 11.0 | 21.0 | 0.00 | 0.03 | 0.00 | 33 | 1004.8 |
| 20260504195304 | 73 | 248 | 9.0 | 26.0 | 0.00 | 0.03 | 0.00 | 34 | 1004.6 |
| 20260504194802 | 73 | 243 | 8.0 | 26.0 | 0.00 | 0.03 | 0.00 | 34 | 1004.8 |
| 20260504193303 | 72 | 218 | 12.0 | 20.0 | 0.00 | 0.03 | 0.00 | 35 | 1005.1 |
| 20260504192804 | 71 | 262 | 6.0 | 17.0 | 0.00 | 0.03 | 0.00 | 37 | 1005.1 |
| 20260504192304 | 72 | 254 | 9.0 | 17.0 | 0.00 | 0.03 | 0.00 | 36 | 1005.3 |
| 20260504191803 | 72 | 274 | 12.0 | 18.0 | 0.00 | 0.03 | 0.00 | 35 | 1005.1 |
| 20260504191303 | 73 | 258 | 7.0 | 21.0 | 0.00 | 0.03 | 0.00 | 36 | 1005.2 |
| 20260504190804 | 72 | 226 | 11.0 | 23.0 | 0.00 | 0.03 | 0.00 | 36 | 1005.3 |
| 20260504190303 | 72 | 229 | 14.0 | 23.0 | 0.00 | 0.03 | 0.00 | 37 | 1005.3 |
| 20260504185803 | 71 | 256 | 10.0 | 23.0 | 0.00 | 0.03 | 0.00 | 36 | 1005.5 |
| 20260504185304 | 72 | 234 | 12.0 | 24.0 | 0.00 | 0.03 | 0.00 | 37 | 1005.2 |
| 20260504184804 | 71 | 220 | 12.0 | 29.0 | 0.00 | 0.03 | 0.00 | 37 | 1005.3 |
| 20260504184303 | 71 | 225 | 18.0 | 28.0 | 0.00 | 0.03 | 0.00 | 36 | 1005.5 |
| 20260504183802 | 72 | 262 | 7.0 | 21.0 | 0.00 | 0.03 | 0.00 | 37 | 1005.5 |
| 20260504183303 | 72 | 257 | 10.0 | 29.0 | 0.00 | 0.03 | 0.00 | 36 | 1005.5 |
| 20260504182804 | 71 | 239 | 16.0 | 29.0 | 0.00 | 0.03 | 0.00 | 38 | 1005.5 |
| 20260504182304 | 71 | 262 | 10.0 | 22.0 | 0.00 | 0.03 | 0.00 | 38 | 1005.6 |
| 20260504181803 | 70 | 263 | 12.0 | 18.0 | 0.00 | 0.03 | 0.00 | 37 | 1005.6 |
| 20260504181303 | 70 | 289 | 11.0 | 28.0 | 0.00 | 0.03 | 0.00 | 39 | 1005.8 |
| 20260504180803 | 70 | 202 | 12.0 | 28.0 | 0.00 | 0.03 | 0.00 | 40 | 1005.8 |
| 20260504180304 | 70 | 224 | 14.0 | 22.0 | 0.00 | 0.03 | 0.00 | 38 | 1005.9 |
| 20260504175803 | 71 | 220 | 10.0 | 20.0 | 0.00 | 0.03 | 0.00 | 40 | 1005.8 |
| 20260504175304 | 70 | 237 | 7.0 | 20.0 | 0.00 | 0.03 | 0.00 | 39 | 1005.9 |
| 20260504174802 | 69 | 238 | 11.0 | 17.0 | 0.00 | 0.03 | 0.00 | 39 | 1006.0 |
| 20260504174302 | 69 | 241 | 10.0 | 24.0 | 0.00 | 0.03 | 0.00 | 40 | 1006.0 |
| 20260504173802 | 69 | 273 | 9.0 | 20.0 | 0.00 | 0.03 | 0.00 | 40 | 1005.9 |
| 20260504173303 | 69 | 233 | 5.0 | 24.0 | 0.00 | 0.03 | 0.00 | 40 | 1006.0 |
| 20260504172803 | 68 | 230 | 19.0 | 24.0 | 0.00 | 0.03 | 0.00 | 40 | 1006.0 |
| 20260504172304 | 69 | 225 | 7.0 | 17.0 | 0.00 | 0.03 | 0.00 | 39 | 1006.2 |
| 20260504171803 | 68 | 280 | 9.0 | 21.0 | 0.00 | 0.03 | 0.00 | 40 | 1006.1 |
| 20260504171303 | 67 | 249 | 12.0 | 28.0 | 0.00 | 0.03 | 0.00 | 40 | 1006.1 |
| 20260504170303 | 69 | 216 | 11.0 | 22.0 | 0.00 | 0.03 | 0.00 | 41 | 1006.3 |
| 20260504160304 | 65 | 219 | 13.0 | 23.0 | 0.00 | 0.03 | 0.00 | 42 | 1006.8 |
| 20260504150804 | 62 | 220 | 10.0 | 22.0 | 0.00 | 0.03 | 0.00 | 43 | 1007.3 |
| 20260504150302 | 63 | 182 | 8.0 | 16.0 | 0.00 | 0.03 | 0.00 | 44 | 1007.2 |
| 20260504141303 | 61 | 217 | 9.0 | 24.0 | 0.00 | 0.03 | 0.00 | 44 | 1007.3 |
| 20260504140802 | 61 | 262 | 7.0 | 22.0 | 0.00 | 0.03 | 0.00 | 44 | 1007.4 |
| 20260504140305 | 60 | 239 | 12.0 | 22.0 | 0.00 | 0.03 | 0.00 | 45 | 1007.4 |
| 20260504130803 | 56 | 247 | 9.0 | 17.0 | 0.00 | 0.03 | 0.00 | 48 | 1007.8 |
| 20260504130303 | 55 | 223 | 7.0 | 16.0 | 0.00 | 0.03 | 0.00 | 48 | 1007.6 |
| 20260504110303 | 53 | 251 | 9.0 | 26.0 | 0.00 | 0.03 | 0.00 | 48 | 1007.8 |
| 20260504100303 | 52 | 215 | 6.0 | 17.0 | 0.00 | 0.03 | 0.00 | 50 | 1007.8 |
| 20260504081803 | 52 | 210 | 4.0 | 12.0 | 0.00 | 0.03 | 0.00 | 53 | 1008.3 |
| 20260504081304 | 52 | 212 | 5.0 | 14.0 | 0.00 | 0.03 | 0.00 | 53 | 1008.1 |
| 20260504080803 | 52 | 236 | 7.0 | 15.0 | 0.00 | 0.03 | 0.00 | 52 | 1008.2 |
| 20260504080303 | 52 | 223 | 6.0 | 18.0 | 0.00 | 0.03 | 0.00 | 51 | 1008.4 |
| 20260504070304 | 51 | 220 | 3.0 | 10.0 | 0.00 | 0.03 | 0.00 | 56 | 1008.4 |
| 20260504050303 | 48 | 102 | 2.0 | 3.0 | 0.00 | 0.03 | 0.00 | 87 | 1009.1 |
| 20260504045803 | 48 | 93 | 2.0 | 3.0 | 0.00 | 0.03 | 0.00 | 87 | 1009.1 |
| 20260504045304 | 48 | 92 | 2.0 | 2.0 | 0.00 | 0.03 | 0.00 | 87 | 1009.0 |
| 20260504044303 | 48 | 79 | 2.0 | 2.0 | 0.00 | 0.03 | 0.00 | 86 | 1009.2 |
| 20260504043803 | 48 | 82 | 2.0 | 3.0 | 0.00 | 0.03 | 0.00 | 86 | 1009.2 |
| 20260504043303 | 48 | 70 | 2.0 | 3.0 | 0.00 | 0.03 | 0.00 | 85 | 1009.3 |
| 20260504042803 | 48 | 74 | 2.0 | 3.0 | 0.00 | 0.03 | 0.00 | 85 | 1009.1 |
| 20260504042304 | 48 | 80 | 2.0 | 3.0 | 0.00 | 0.03 | 0.00 | 84 | 1009.2 |
| 20260504041803 | 48 | 105 | 2.0 | 3.0 | 0.00 | 0.03 | 0.00 | 84 | 1009.1 |
| 20260504041303 | 48 | 87 | 3.0 | 3.0 | 0.00 | 0.03 | 0.00 | 84 | 1009.2 |
| 20260504040803 | 48 | 80 | 2.0 | 3.0 | 0.00 | 0.03 | 0.00 | 83 | 1009.3 |
| 20260504035804 | 48 | 67 | 2.0 | 3.0 | 0.00 | 0.03 | 0.03 | 83 | 1009.2 |
| 20260504035305 | 48 | 75 | 2.0 | 3.0 | 0.00 | 0.03 | 0.03 | 83 | 1009.4 |
| 20260504034303 | 48 | 150 | 1.0 | 2.0 | 0.00 | 0.03 | 0.03 | 83 | 1009.4 |
| 20260504033303 | 48 | 84 | 2.0 | 7.0 | 0.00 | 0.03 | 0.03 | 84 | 1009.3 |
| 20260504032803 | 48 | 110 | 3.0 | 7.0 | 0.00 | 0.03 | 0.03 | 84 | 1009.5 |
| 20260504032304 | 48 | 144 | 3.0 | 5.0 | 0.00 | 0.03 | 0.03 | 84 | 1009.6 |
| 20260504031303 | 48 | 71 | 2.0 | 3.0 | 0.00 | 0.03 | 0.03 | 83 | 1009.8 |
| 20260504030303 | 48 | 87 | 0.0 | 3.0 | 0.00 | 0.03 | 0.03 | 83 | 1009.6 |
| 20260504025803 | 48 | 145 | 1.0 | 3.0 | 0.00 | 0.03 | 0.03 | 82 | 1009.4 |
| 20260504025304 | 48 | 113 | 2.0 | 5.0 | 0.00 | 0.03 | 0.03 | 81 | 1009.6 |
| 20260504024803 | 48 | 120 | 3.0 | 5.0 | 0.00 | 0.03 | 0.03 | 81 | 1009.5 |
| 20260504024304 | 49 | 128 | 2.0 | 3.0 | 0.01 | 0.03 | 0.03 | 80 | 1009.6 |
| 20260504023303 | 49 | 125 | 2.0 | 3.0 | 0.01 | 0.03 | 0.03 | 79 | 1009.8 |
| 20260504022804 | 49 | 118 | 2.0 | 3.0 | 0.02 | 0.03 | 0.03 | 79 | 1010.1 |
| 20260504022304 | 49 | 101 | 1.0 | 3.0 | 0.02 | 0.03 | 0.03 | 78 | 1010.3 |
| 20260504021804 | 49 | 53 | 2.0 | 3.0 | 0.02 | 0.03 | 0.03 | 77 | 1010.5 |
| 20260504021304 | 50 | 20 | 1.0 | 5.0 | 0.02 | 0.03 | 0.03 | 76 | 1010.4 |
| 20260504020803 | 50 | 235 | 2.0 | 7.0 | 0.02 | 0.03 | 0.03 | 75 | 1010.2 |
| 20260504020302 | 50 | 257 | 4.0 | 7.0 | 0.02 | 0.03 | 0.03 | 75 | 1010.3 |
| 20260504015803 | 50 | 243 | 4.0 | 10.0 | 0.02 | 0.03 | 0.03 | 75 | 1010.3 |
| 20260504015304 | 50 | 266 | 4.0 | 10.0 | 0.02 | 0.03 | 0.03 | 74 | 1010.5 |
| 20260504014803 | 50 | 260 | 5.0 | 15.0 | 0.01 | 0.02 | 0.02 | 74 | 1010.5 |
| 20260504014303 | 50 | 285 | 7.0 | 17.0 | 0.01 | 0.02 | 0.02 | 72 | 1010.5 |
| 20260504013804 | 51 | 277 | 9.0 | 25.0 | 0.02 | 0.02 | 0.02 | 70 | 1010.7 |
| 20260504012803 | 52 | 242 | 9.0 | 20.0 | 0.01 | 0.01 | 0.01 | 65 | 1010.7 |
| 20260504012305 | 52 | 278 | 6.0 | 15.0 | 0.01 | 0.01 | 0.01 | 64 | 1010.7 |
| 20260504011803 | 52 | 273 | 4.0 | 24.0 | 0.01 | 0.01 | 0.01 | 63 | 1010.4 |
| 20260504011305 | 52 | 259 | 12.0 | 24.0 | 0.01 | 0.01 | 0.01 | 61 | 1010.2 |
| 20260504010805 | 52 | 274 | 10.0 | 20.0 | 0.01 | 0.01 | 0.01 | 61 | 1010.2 |
| 20260504010304 | 52 | 289 | 7.0 | 29.0 | 0.01 | 0.01 | 0.01 | 60 | 1010.0 |
| 20260504005803 | 53 | 305 | 13.0 | 29.0 | 0.01 | 0.01 | 0.01 | 57 | 1009.9 |
| 20260504005304 | 52 | 287 | 7.0 | 22.0 | 0.01 | 0.01 | 0.01 | 57 | 1010.0 |
| 20260504004803 | 52 | 257 | 3.0 | 17.0 | 0.01 | 0.01 | 0.01 | 64 | 1009.9 |
| 20260504004302 | 52 | 278 | 12.0 | 26.0 | 0.01 | 0.01 | 0.01 | 60 | 1009.8 |